"Pseudo-MPEC" for OCA6087

Created 2020 Feb 14 22:07:06 UT using Find_Orb

Click here for an explanation of pseudo-MPECs

 
 Astrometry: 
     OCA6087  C2020 01 297;U]9t7g2P%h@@+Dwg_lq\hQL=d'?!BN^5HO5%[W!u+Err_Cu,yMX74
     OCA6087  C2020 01 292p7Astrometry95lredacted;5c*Jf3Ulb2clicklhere=aR=YJwX74
     OCA6087  C2020 01 29HQ]G$Iob-;wKy!k2[F%C2qfor;sIX,N4]explanationPetQDCImX74

Station data:
(X74) Observatório Campo dos Amarais  (S21.661263 W50.849400)  Brazil.

Orbital elements:  OCA6087
   Perihelion 2019 Nov 17.798172 +/- 172 TT = 19:09:22 (JD 2458805.298172)
Epoch 2020 Jan 29.0 TT = JDT 2458877.5   Earth MOID: 0.0942   Ve: 0.0004
M  73.89977983 +/- 80               (J2000 ecliptic)          AutoNEOCP
n   1.02351674 +/- 0.859            Peri.  196.85854 +/- 80
a   0.97515296 +/- 0.546            Node   204.77971 +/- 31
e   0.2578383 +/- 0.209             Incl.    6.82608 +/- 37
P   0.96/351.72d           H 18.7   G  0.15   U 12.6  SR
q 0.72372114 +/- 1.03    Q 1.22658478 +/- 36
From 3 observations 2020 Jan. 29 (37.6 min); mean residual 0".33
Residuals in arcseconds: 
200129 X74  .33+  .01-    200129 X74  .67-  .02+    200129 X74  .34+  .01-    

Ephemerides (geocentric):
Date (UTC) HH   RA              Dec         delta   r     elong  mag " sig PA
---- -- -- --  -------------   -----------  ------ ------ -----  --- ---- ---
2020 02 14 22  15 02 06.498   -34 43 12.62  .29609 1.0421  92.3 18.7  51d 152
2020 02 14 23  15 02 07.911   -34 42 58.95  .29603 1.0423  92.3 18.7  51d 152
2020 02 15 00  15 02 09.320   -34 42 45.26  .29597 1.0425  92.4 18.7  51d 152
2020 02 15 01  15 02 10.726   -34 42 31.55  .29591 1.0426  92.4 18.7  51d 152
2020 02 15 02  15 02 12.127   -34 42 17.81  .29585 1.0428  92.4 18.7  51d 152
2020 02 15 03  15 02 13.525   -34 42 04.06  .29579 1.0430  92.5 18.7  52d 152
2020 02 15 04  15 02 14.919   -34 41 50.28  .29573 1.0432  92.5 18.7  52d 152
2020 02 15 05  15 02 16.309   -34 41 36.47  .29567 1.0433  92.5 18.7  52d 152
2020 02 15 06  15 02 17.695   -34 41 22.65  .29561 1.0435  92.6 18.7  52d 152
2020 02 15 07  15 02 19.077   -34 41 08.80  .29554 1.0437  92.6 18.7  52d 152
2020 02 15 08  15 02 20.456   -34 40 54.92  .29548 1.0438  92.6 18.7  52d 152
2020 02 15 09  15 02 21.830   -34 40 41.03  .29542 1.0440  92.7 18.7  52d 152
2020 02 15 10  15 02 23.201   -34 40 27.11  .29536 1.0442  92.7 18.7  52d 152
2020 02 15 11  15 02 24.568   -34 40 13.17  .29530 1.0443  92.8 18.7  52d 152
2020 02 15 12  15 02 25.931   -34 39 59.20  .29523 1.0445  92.8 18.7  52d 152
2020 02 15 13  15 02 27.289   -34 39 45.22  .29517 1.0447  92.8 18.7  52d 152
2020 02 15 14  15 02 28.644   -34 39 31.20  .29511 1.0448  92.9 18.7  52d 152
2020 02 15 15  15 02 29.995   -34 39 17.17  .29505 1.0450  92.9 18.7  52d 152
2020 02 15 16  15 02 31.342   -34 39 03.11  .29498 1.0452  92.9 18.7  53d 152
2020 02 15 17  15 02 32.685   -34 38 49.03  .29492 1.0453  93.0 18.7  53d 152
2020 02 15 18  15 02 34.024   -34 38 34.92  .29486 1.0455  93.0 18.7  53d 152
2020 02 15 19  15 02 35.359   -34 38 20.79  .29480 1.0457  93.1 18.7  53d 152
2020 02 15 20  15 02 36.690   -34 38 06.63  .29473 1.0458  93.1 18.7  53d 152
2020 02 15 21  15 02 38.016   -34 37 52.45  .29467 1.0460  93.1 18.7  53d 152
2020 02 15 22  15 02 39.339   -34 37 38.25  .29461 1.0462  93.2 18.7  53d 152
2020 02 15 23  15 02 40.658   -34 37 24.02  .29454 1.0463  93.2 18.7  53d 152
2020 02 16 00  15 02 41.972   -34 37 09.77  .29448 1.0465  93.2 18.7  53d 152
2020 02 16 01  15 02 43.282   -34 36 55.50  .29441 1.0467  93.3 18.7  53d 152
2020 02 16 02  15 02 44.589   -34 36 41.20  .29435 1.0468  93.3 18.7  53d 152
2020 02 16 03  15 02 45.891   -34 36 26.87  .29429 1.0470  93.4 18.7  53d 152
2020 02 16 04  15 02 47.189   -34 36 12.52  .29422 1.0472  93.4 18.7  53d 152
2020 02 16 05  15 02 48.483   -34 35 58.15  .29416 1.0473  93.4 18.6  53d 152
2020 02 16 06  15 02 49.772   -34 35 43.75  .29409 1.0475  93.5 18.6  53d 152
2020 02 16 07  15 02 51.058   -34 35 29.33  .29403 1.0477  93.5 18.6  53d 152
2020 02 16 08  15 02 52.339   -34 35 14.88  .29396 1.0478  93.5 18.6  53d 152
2020 02 16 09  15 02 53.616   -34 35 00.40  .29390 1.0480  93.6 18.6  53d 152
2020 02 16 10  15 02 54.889   -34 34 45.90  .29383 1.0482  93.6 18.6  53d 152
2020 02 16 11  15 02 56.158   -34 34 31.38  .29377 1.0483  93.7 18.6  54d 152
2020 02 16 12  15 02 57.422   -34 34 16.83  .29370 1.0485  93.7 18.6  54d 153
2020 02 16 13  15 02 58.682   -34 34 02.26  .29364 1.0487  93.7 18.6  54d 153
2020 02 16 14  15 02 59.938   -34 33 47.66  .29357 1.0488  93.8 18.6  54d 153
2020 02 16 15  15 03 01.190   -34 33 33.03  .29351 1.0490  93.8 18.6  54d 153
2020 02 16 16  15 03 02.437   -34 33 18.38  .29344 1.0492  93.8 18.6  54d 153
2020 02 16 17  15 03 03.680   -34 33 03.70  .29338 1.0493  93.9 18.6  54d 153
2020 02 16 18  15 03 04.918   -34 32 49.00  .29331 1.0495  93.9 18.6  54d 153
2020 02 16 19  15 03 06.153   -34 32 34.27  .29324 1.0497  94.0 18.6  54d 153
2020 02 16 20  15 03 07.382   -34 32 19.52  .29318 1.0498  94.0 18.6  54d 153
2020 02 16 21  15 03 08.608   -34 32 04.74  .29311 1.0500  94.0 18.6  54d 153